Regional Weather Roundup
Issued by NWS Charleston, WV

Home | Current Version | Previous Version | Graphics & Text | Print | Product List | Glossary On
Versions: 1 2 3 4 5 6 7 8 9 10 11 12 13 14 15 16 17 18 19 20 21 22 23 24 25 26 27 28 29 30 31 32 33 34 35 36 37 38 39 40 41 42 43 44 45 46 47 48 49 50
643
ASUS41 KRLX 280310
RWRRLX
West Virginia Regional Weather Roundup
National Weather Service Charleston WV
1100 PM EDT MON MAR 27 2017

Note: "fair" indicates few or no clouds below 12,000 feet with no
significant weather and/or obstructions to visibility.

WVZ003-280400-
Northern Panhandle of West Virginia

CITY           SKY/WX    TMP DP  RH WIND       PRES   REMARKS
WHEELING       CLOUDY    60  49  66 E3        29.89F
$$

WVZ009-280400-
Northwest West Virginia

CITY           SKY/WX    TMP DP  RH WIND       PRES   REMARKS
PARKERSBURG    LGT RAIN  61  57  87 S8        29.93R FOG
$$

WVZ006-280400-
Western West Virginia

CITY           SKY/WX    TMP DP  RH WIND       PRES   REMARKS
HUNTINGTON     TSTM      58  54  86 SW7       29.94R
$$

WVZ015-280400-
West Central West Virginia

CITY           SKY/WX    TMP DP  RH WIND       PRES   REMARKS
CHARLESTON     TSTM      61  56  83 NW13G18   29.92R
$$

WVZ022-031-280400-
North Central West Virginia

CITY           SKY/WX    TMP DP  RH WIND       PRES   REMARKS
CLARKSBURG     LGT RAIN  61  55  81 S8        29.91S
MORGANTOWN     CLOUDY    62  50  64 CALM      29.91F
$$

WVZ025-035-042-045-280400-
Southern West Virginia

CITY           SKY/WX    TMP DP  RH WIND       PRES   REMARKS
BECKLEY        MOCLDY    56  52  86 NW5       29.96F
LOGAN          CLOUDY    61  55  82 W8        29.92R
BLUEFIELD      MOCLDY    61  48  62 S5        29.98
LEWISBURG      CLOUDY    53  52  97 CALM      29.97F
$$

WVZ047-280400-
Northern Mountains of West Virginia

CITY           SKY/WX    TMP DP  RH WIND       PRES   REMARKS
ELKINS         CLOUDY    56  49  77 CALM      29.95S
$$

WVZ052-280400-
Eastern Panhandle of West Virginia

CITY           SKY/WX    TMP DP  RH WIND       PRES   REMARKS
MARTINSBURG    CLOUDY    57  54  89 CALM      29.90F
PETERSBURG     CLOUDY    56  53  89 CALM      29.92F
$$




USA.gov is the U.S. government's official web portal to all federal, state and local government web resources and services.